Theta_e
342 343 341 341 342 341 339 337 338 339 340 339 339 339 339 339 340 342 342 342 343 343 343 342 342 343 344 343 341 341 340 339 337 335 336 336 336 336 336 335 335 335 334 332 333 333 334 333 329 326 325 322 321 320 318 316 315 314 312 311 311 311 311
342 343 342 342 343 342 341 339 338 338 339 339 338 338 339 339 339 341 342 342 343 343 342 341 341 342 344 343 341 341 340 339 337 337 336 336 336 336 336 335 335 335 334 333 332 331 333 335 332 328 325 323 322 321 319 318 317 315 313 312 312 311 312
342 343 343 343 343 343 342 340 339 338 338 338 338 338 339 339 340 340 342 343 342 342 342 341 341 342 343 342 341 341 340 338 337 337 336 335 335 335 335 335 335 335 334 333 332 330 330 332 332 329 325 324 324 322 320 319 318 317 314 313 312 312 312
343 343 344 343 344 344 344 342 340 338 338 339 339 339 339 339 341 341 341 342 343 342 342 341 341 342 342 342 341 341 340 339 338 337 335 335 335 336 335 335 334 334 334 332 331 330 329 330 332 331 326 323 323 323 322 320 319 318 316 313 313 312 312
344 343 344 344 344 345 345 343 341 340 340 340 340 340 340 340 341 341 341 342 343 342 342 342 341 341 342 342 341 341 340 339 338 336 335 335 336 336 335 334 333 333 333 331 330 330 330 329 331 332 329 326 325 324 322 321 320 319 317 314 313 313 312
345 344 344 345 345 345 345 344 343 341 341 341 342 341 341 340 340 341 342 342 342 342 342 341 341 341 342 342 341 341 340 339 338 337 336 336 336 336 335 334 333 333 332 331 330 330 330 330 330 332 331 329 329 326 323 321 320 319 317 315 314 313 312
346 344 345 345 344 344 345 345 344 342 342 342 342 342 341 341 341 341 342 342 342 342 341 341 341 341 341 341 341 341 340 339 338 337 337 337 337 336 335 334 333 333 332 332 331 330 330 330 331 332 331 331 330 325 322 321 320 319 318 315 314 313 312
346 345 345 345 345 344 345 345 344 343 342 343 343 343 342 341 342 342 341 342 342 342 341 342 341 341 341 341 340 340 339 339 338 338 337 337 337 335 334 334 333 332 332 332 332 331 330 330 331 331 331 332 333 328 323 321 320 318 317 316 314 313 312
347 347 346 346 346 345 344 345 345 345 344 344 343 343 342 342 342 342 341 342 342 342 342 341 341 341 341 340 340 339 339 339 339 337 337 337 335 334 333 333 332 332 332 332 332 332 331 331 331 330 330 330 332 332 328 326 323 319 317 315 314 313 312
348 348 347 347 346 346 345 345 346 346 345 344 344 343 343 342 342 341 342 342 342 343 343 342 341 341 341 340 339 338 338 338 337 336 335 335 334 334 334 334 333 333 333 332 332 332 331 331 330 330 330 328 329 331 331 331 328 322 317 315 313 312 311
349 348 347 347 346 346 346 346 346 346 345 345 344 343 343 342 342 342 341 342 342 343 343 342 342 341 341 340 339 338 337 337 336 335 335 335 334 333 333 334 334 333 333 332 332 332 331 331 330 328 329 328 328 328 328 329 327 322 317 315 313 312 311
349 348 348 347 347 347 347 346 346 346 346 345 344 344 344 343 342 342 342 342 341 343 343 342 342 342 341 339 339 338 337 336 336 335 334 334 333 332 332 332 333 332 332 332 332 331 330 329 329 328 328 328 326 324 323 324 324 322 318 314 312 311 310
350 349 349 348 347 347 348 347 346 346 345 345 345 344 343 343 343 343 342 342 342 343 343 343 342 342 340 339 338 338 337 336 335 334 333 332 332 332 332 332 332 331 331 331 330 331 330 330 329 328 327 326 324 322 321 320 321 321 317 313 311 311 310
350 350 349 349 348 348 348 347 346 346 345 345 345 344 343 343 343 343 342 342 342 342 343 343 342 341 340 339 338 337 337 336 335 334 333 332 331 331 332 332 332 331 330 330 330 329 329 328 327 326 325 323 322 320 319 319 319 319 316 313 311 310 309
350 350 350 349 349 348 348 347 347 346 345 345 345 345 344 343 343 343 342 341 341 342 343 343 342 341 340 339 338 337 336 335 334 333 332 331 331 330 330 331 331 330 329 330 329 327 327 326 325 324 324 321 319 317 317 318 318 318 316 314 311 309 308
351 351 351 349 349 348 348 347 347 346 345 345 345 344 343 343 343 343 342 341 341 341 342 342 341 340 339 339 338 337 336 335 334 333 332 331 331 331 330 329 328 329 328 328 327 326 326 324 322 322 321 319 317 316 316 317 316 316 317 314 311 310 309
351 351 350 350 349 349 348 348 347 346 345 345 345 344 343 343 343 342 342 341 341 341 341 341 341 340 339 339 337 336 335 334 333 333 331 331 331 330 330 329 328 328 327 327 326 325 324 322 320 319 318 317 315 314 315 315 313 315 317 315 312 311 310
351 351 350 350 350 350 349 348 348 346 345 345 346 344 343 343 343 342 342 341 340 340 340 341 341 340 339 338 337 336 335 334 333 333 332 331 330 330 329 328 327 327 327 325 325 323 321 319 317 316 315 314 313 312 313 313 313 315 317 315 313 312 310
351 350 350 350 350 350 350 349 348 347 346 345 345 344 343 343 343 342 342 341 340 339 339 340 341 340 339 337 337 336 335 333 333 333 332 330 330 329 328 327 326 325 325 324 323 321 319 316 315 313 311 311 310 311 312 313 313 315 315 314 313 310 309
350 350 350 350 350 350 350 349 348 347 346 345 345 344 343 343 343 342 342 341 340 339 339 340 340 340 338 337 336 335 334 333 333 332 331 330 329 328 327 325 324 324 324 322 321 320 318 315 313 311 310 310 310 312 314 314 313 312 312 312 311 309 308
349 349 349 349 350 350 350 350 349 348 347 346 345 344 344 344 343 343 342 341 340 339 338 339 340 339 338 337 336 335 334 333 332 331 331 330 329 328 326 324 323 323 322 321 320 319 316 314 312 311 310 310 311 314 315 313 310 309 309 310 310 309 308
349 348 348 349 350 350 350 350 349 348 347 346 345 344 344 344 344 343 342 342 341 340 338 338 339 339 338 336 336 335 334 333 331 330 330 330 328 327 325 323 322 322 321 320 319 317 315 313 311 311 310 310 312 314 313 310 307 307 308 309 309 309 308
350 349 349 349 349 350 350 350 349 348 347 346 345 345 344 344 344 343 343 342 341 340 339 338 339 338 338 336 335 335 334 332 331 330 330 329 327 325 323 321 321 321 320 320 318 316 314 313 311 310 309 310 312 312 309 307 307 308 308 308 309 309 308
350 349 348 349 349 349 349 350 350 349 348 346 345 345 344 344 344 344 343 342 341 340 339 339 338 338 338 336 335 335 333 332 331 330 329 328 326 324 322 320 320 319 319 318 316 315 314 312 311 311 310 310 311 309 306 306 308 308 307 308 308 308 308
349 349 349 348 348 348 349 349 350 349 348 347 345 345 345 345 344 344 343 342 342 341 340 339 338 338 338 336 335 334 332 331 330 329 329 327 325 323 321 319 319 318 318 317 315 314 313 312 311 310 310 310 309 307 305 306 308 307 307 308 308 307 308
346 347 348 348 348 348 349 349 350 349 348 347 346 345 345 344 344 344 344 343 342 342 341 340 338 338 338 336 335 333 331 330 328 328 328 326 324 322 320 319 318 318 317 315 314 313 312 311 310 310 311 310 308 306 306 307 309 308 307 307 307 307 308
342 344 346 348 348 347 348 349 349 349 348 347 346 345 345 344 344 344 344 343 342 342 341 340 338 337 337 336 334 332 330 329 328 328 328 325 323 321 319 318 317 317 315 313 313 312 311 311 309 308 309 308 307 306 307 308 309 309 308 307 308 308 308
339 340 343 346 347 347 347 348 349 349 348 347 346 345 345 344 344 344 344 344 343 342 341 340 338 337 337 336 334 331 330 329 329 329 327 325 322 320 319 318 317 316 314 312 312 311 311 310 308 307 307 307 306 306 306 308 308 308 308 308 308 309 309
339 339 340 344 346 346 346 347 348 348 348 347 346 345 344 344 343 343 343 343 342 342 341 340 338 337 336 335 332 331 329 329 329 328 326 323 321 320 319 318 317 316 314 312 311 310 310 309 307 305 305 305 305 305 305 306 306 306 306 307 307 309 309
339 339 339 342 344 345 345 347 348 348 347 347 346 345 344 343 343 343 343 343 342 342 341 339 338 337 335 333 331 330 329 328 328 326 324 322 321 319 318 317 316 315 314 312 311 310 309 307 305 303 303 304 304 304 304 304 305 305 305 305 305 306 308
338 338 338 338 342 345 345 346 348 348 347 346 346 345 344 343 343 343 343 343 342 341 340 338 337 336 334 332 331 329 328 327 326 325 324 322 320 319 318 317 316 316 314 312 311 309 307 306 304 302 303 303 303 302 302 302 303 304 304 304 303 304 306
336 337 337 335 339 343 345 345 347 347 346 346 345 345 344 343 343 343 342 342 341 341 339 337 335 335 334 332 330 329 328 327 326 326 325 322 320 318 317 316 316 315 313 312 310 308 306 305 304 304 304 303 301 302 303 300 299 301 301 301 301 301 302
335 336 337 336 338 343 344 344 346 346 346 345 345 344 343 343 342 342 342 342 341 340 339 336 334 334 333 331 329 329 328 327 327 326 324 321 319 317 316 315 315 315 313 312 310 307 305 305 306 305 304 302 300 301 303 301 300 302 302 299 298 298 299
336 336 337 337 338 342 344 344 345 346 345 344 344 344 343 342 342 342 341 341 340 339 338 335 333 332 331 330 328 328 328 328 327 325 322 319 318 317 316 315 314 314 313 312 311 308 305 305 307 306 304 302 298 299 303 306 306 306 305 301 298 297 297
336 336 337 336 335 338 342 344 345 345 345 344 344 343 342 341 341 341 341 340 339 338 337 335 334 332 331 329 327 327 328 328 327 324 321 318 317 316 316 315 314 313 313 313 312 309 306 305 307 306 304 302 301 301 305 309 309 308 307 304 301 299 299
334 335 336 335 332 333 339 343 345 345 344 344 343 342 342 341 340 340 340 339 339 337 336 334 334 333 331 328 326 326 327 327 326 323 320 318 317 317 316 315 314 313 312 312 313 311 307 305 306 306 305 304 305 305 306 308 308 309 308 307 304 303 303
333 333 334 335 334 334 338 343 345 344 343 343 342 342 341 340 339 339 339 338 338 336 334 333 333 333 331 328 325 325 326 326 324 322 320 319 317 317 316 315 314 312 311 311 312 311 308 305 305 306 307 306 306 306 306 306 307 308 307 307 306 305 305
Wind_Speed
25 22 26 26 24 28 27 26 28 27 27 27 26 25 24 23 22 21 21 20 19 18 19 18 17 17 17 17 17 17 17 17 18 20 21 22 20 18 18 17 14 10 7 7 6 2 3 4 7 12 15 16 16 16 15 14 14 14 16 15 13 13 13
26 23 27 28 24 27 28 27 28 27 27 28 26 26 24 24 23 22 21 22 21 19 19 19 17 17 18 17 18 18 17 17 17 18 19 20 20 18 16 16 13 11 10 9 10 8 5 4 4 5 11 14 14 18 18 16 14 14 16 18 15 12 13
28 24 26 28 26 26 28 28 28 27 27 28 27 26 25 24 24 23 21 21 23 21 19 19 18 17 18 18 18 19 18 17 17 17 18 18 17 16 15 14 13 11 10 9 11 11 8 7 5 4 11 14 11 16 21 19 17 14 14 18 18 14 13
30 27 26 28 28 27 27 28 29 28 27 28 29 28 27 26 24 24 22 21 23 22 20 19 19 18 18 19 18 18 19 19 17 18 18 17 14 14 15 14 14 14 13 11 10 11 10 7 5 4 10 17 15 16 20 22 21 16 14 16 19 17 14
30 30 28 28 30 28 27 28 28 29 28 28 30 30 29 28 26 26 25 22 22 23 23 21 19 19 18 19 19 19 19 18 18 18 18 18 16 16 17 15 15 15 14 13 12 12 12 11 9 5 6 13 14 15 19 21 20 18 16 14 16 16 14
30 31 30 29 31 30 28 28 28 29 29 29 30 31 31 30 28 27 27 25 23 24 24 23 20 20 19 19 19 19 20 19 19 19 18 18 18 18 18 17 17 16 14 13 14 14 12 12 10 7 7 9 8 8 16 20 18 17 17 16 16 15 14
32 31 31 29 30 30 30 30 30 30 31 29 30 31 31 31 29 29 28 27 25 23 24 24 22 20 20 20 20 19 20 20 20 19 19 18 18 18 18 18 17 18 16 14 15 15 14 12 9 8 7 10 9 5 15 18 18 16 16 18 18 15 14
33 32 31 30 31 32 31 31 30 31 31 30 29 30 31 31 29 29 29 28 27 24 24 25 24 22 21 21 21 20 20 20 20 20 20 19 19 19 19 18 19 19 18 16 16 16 16 14 12 12 10 7 7 3 10 14 16 17 18 18 18 16 15
35 32 31 30 31 33 32 31 30 31 31 30 29 29 30 31 30 30 29 29 28 26 25 26 26 24 22 22 22 21 21 21 21 21 21 20 19 18 18 18 18 18 16 16 17 17 17 16 13 12 11 9 6 2 4 7 10 15 19 18 16 16 16
36 34 33 33 32 32 32 31 30 31 30 30 30 30 30 31 31 30 30 29 29 28 26 27 28 26 24 24 23 23 22 22 21 21 20 19 18 17 16 16 16 17 16 16 16 16 16 16 15 13 13 13 11 6 3 4 5 9 16 18 17 17 16
36 35 34 33 32 31 32 32 31 32 32 31 30 30 30 31 31 31 31 30 30 29 28 27 28 27 25 25 24 23 24 22 20 19 19 19 17 16 16 16 16 17 17 16 15 17 17 17 18 17 17 18 16 10 6 3 3 5 12 17 18 18 18
36 36 34 33 33 32 33 34 33 33 33 32 31 31 30 30 31 31 31 31 30 30 29 28 28 28 26 26 25 24 23 22 21 20 19 18 17 17 18 19 19 19 19 18 17 19 20 21 21 20 21 19 15 9 5 2 1 2 5 14 15 15 20
36 35 34 34 34 33 34 35 35 34 33 32 32 32 31 31 31 31 31 31 30 30 30 28 29 28 27 26 26 25 23 22 22 20 19 18 18 18 20 22 23 21 20 21 21 22 22 22 21 20 18 15 12 8 5 3 2 3 3 12 14 12 19
36 36 35 35 35 34 34 35 36 35 34 34 33 32 32 32 31 31 31 31 30 30 30 30 29 30 28 27 27 27 24 22 22 21 19 20 20 20 20 22 24 23 22 24 23 20 20 18 17 16 14 11 11 11 9 6 5 3 5 11 13 13 18
37 37 36 35 35 35 34 35 37 36 34 34 34 33 32 32 32 32 32 32 30 30 30 30 30 31 30 28 27 27 26 24 23 22 21 21 21 21 21 21 22 22 22 23 21 16 15 14 14 14 14 13 12 13 13 10 8 6 8 11 11 15 18
37 37 37 36 36 36 35 35 37 37 35 34 34 34 33 32 33 33 33 33 32 31 31 31 31 31 31 30 29 28 27 26 25 24 22 22 22 22 22 21 22 21 19 19 20 17 14 15 15 15 16 16 15 14 14 14 12 11 13 13 12 14 15
38 38 38 37 37 38 37 36 36 37 36 34 34 35 34 33 33 33 34 35 33 32 32 31 31 31 31 30 30 29 28 27 26 25 24 24 23 22 22 22 22 22 20 19 19 18 17 17 18 17 17 17 17 14 13 14 15 13 15 16 12 12 14
38 39 39 39 39 39 38 36 36 37 36 35 35 35 35 34 34 34 35 35 34 33 33 32 31 31 31 31 31 29 28 27 26 26 26 25 23 22 21 22 22 22 22 21 21 20 19 18 18 18 17 17 17 15 13 13 14 13 15 17 14 12 14
38 40 40 40 40 40 39 37 37 36 36 35 35 35 35 34 34 35 34 34 34 33 32 32 31 32 31 31 31 29 29 29 27 25 26 24 23 22 21 21 22 22 23 23 23 22 21 19 19 18 18 17 16 16 15 13 13 14 14 15 15 13 13
39 40 41 41 41 40 39 38 37 37 36 36 36 36 35 34 34 35 34 33 34 34 33 33 32 32 33 31 32 31 29 30 29 25 25 24 23 22 21 22 22 23 23 23 23 23 22 21 20 19 18 18 16 17 18 15 13 14 13 12 14 14 13
39 40 42 42 40 39 39 38 38 37 36 36 37 38 37 34 33 34 34 34 37 36 34 35 34 34 34 33 32 32 30 30 29 27 25 24 23 22 22 22 23 23 23 23 23 23 23 23 22 20 19 19 17 19 20 17 14 14 14 13 13 14 13
38 39 40 40 39 38 38 38 38 37 37 37 38 38 36 35 33 33 34 35 37 36 34 36 36 35 35 35 33 32 32 31 30 28 27 25 23 21 21 22 23 23 23 23 23 23 23 24 24 22 21 20 19 19 20 18 16 15 15 14 13 14 14
36 37 37 37 38 37 38 38 38 37 37 38 39 38 36 35 34 34 35 35 36 36 36 36 38 38 37 36 33 32 32 31 30 29 27 25 23 21 22 23 22 22 22 22 22 22 22 23 23 22 22 21 20 19 19 18 17 16 16 15 13 13 14
35 36 36 36 37 38 37 37 38 38 38 37 37 38 37 36 36 36 36 35 35 36 37 37 38 40 40 37 35 33 32 32 31 30 28 26 24 22 22 22 22 22 22 23 23 23 23 24 23 22 22 22 20 19 19 17 17 17 15 14 14 14 14
33 34 36 36 37 38 38 37 37 38 38 37 37 38 38 38 37 36 35 35 36 36 36 36 38 40 41 40 38 35 33 32 31 31 30 27 24 23 23 22 22 22 24 25 25 25 25 25 24 22 22 22 20 19 19 17 17 17 15 14 15 15 14
32 32 35 37 38 38 38 38 38 38 38 39 38 38 39 39 37 36 35 36 37 37 36 36 38 41 42 42 41 37 33 32 33 31 29 28 25 24 24 23 22 23 25 26 27 27 27 26 25 22 21 21 20 20 20 17 15 15 14 13 12 12 12
34 32 33 37 38 38 38 38 38 39 39 38 37 37 38 39 38 37 36 36 36 36 36 36 38 41 43 43 42 39 34 32 33 32 29 28 27 25 25 25 23 24 26 28 28 29 29 28 26 23 22 21 21 20 19 16 15 13 13 12 10 8 10
35 34 34 36 38 38 38 38 39 38 38 38 39 40 40 40 40 38 36 37 36 35 36 38 39 41 44 45 44 40 34 32 33 31 29 29 29 28 27 27 25 25 27 28 30 30 30 29 28 24 22 21 20 20 18 16 16 16 13 13 12 9 9
36 36 36 36 38 39 38 39 39 38 38 38 39 39 39 39 39 38 36 37 36 35 36 39 40 42 44 46 46 41 34 31 32 30 28 29 29 28 28 28 26 26 27 28 30 30 29 29 28 25 23 21 19 20 19 16 16 19 17 15 15 12 10
35 37 36 34 36 38 39 39 40 39 38 37 37 38 39 39 40 39 37 36 36 36 35 37 41 43 45 47 47 40 33 31 32 30 28 29 28 28 28 29 28 27 27 28 29 30 28 27 27 25 23 22 20 20 20 19 17 18 18 17 17 15 11
31 33 34 36 38 38 38 38 39 40 39 38 38 40 40 40 40 39 38 37 37 36 34 36 41 44 46 49 48 41 34 32 31 30 28 28 28 27 28 29 29 27 27 28 29 29 28 26 26 26 24 24 23 20 20 21 20 19 19 19 18 17 15
34 33 33 36 40 39 40 39 39 40 40 38 38 39 40 38 37 38 38 38 38 36 34 36 41 45 47 50 50 42 35 33 32 31 29 28 27 26 27 28 29 27 26 27 28 29 30 27 26 26 26 25 25 22 20 22 22 22 22 22 21 20 19
34 39 41 44 45 41 40 40 39 39 39 37 35 35 37 37 36 37 37 37 37 37 36 36 41 45 48 52 52 45 37 35 33 31 29 29 27 26 26 28 30 28 25 26 28 30 32 30 27 27 27 27 27 25 22 21 22 23 23 24 23 21 20
29 32 38 41 41 40 39 40 39 39 37 36 34 33 35 36 35 35 36 36 36 36 36 38 42 45 48 53 55 48 40 36 35 32 29 29 29 28 27 29 31 30 26 27 29 31 32 31 27 26 27 27 26 24 21 21 21 20 19 21 22 21 19
33 30 31 30 28 30 33 36 37 37 36 35 34 33 34 35 33 33 33 34 35 34 35 37 41 45 49 55 56 51 42 37 36 34 31 30 30 29 28 30 33 34 31 29 30 31 32 32 27 24 24 24 22 21 22 21 20 18 16 16 18 18 17
31 31 36 35 30 32 32 32 33 34 35 34 33 32 32 33 32 30 31 32 33 33 33 35 38 43 50 55 57 53 44 38 38 38 35 33 32 31 30 31 34 37 35 32 31 31 31 32 29 22 21 22 21 21 23 21 19 19 17 15 16 18 17
32 36 40 40 37 35 34 33 33 33 34 33 31 29 30 31 30 28 28 29 30 31 33 35 36 41 48 54 57 53 44 40 41 39 36 34 33 31 31 33 35 38 37 33 32 30 30 32 31 24 22 23 21 21 24 22 19 21 20 17 18 19 18
Wind_Direction
198 196 195 199 194 188 192 193 193 197 197 198 200 201 202 203 205 208 207 207 207 209 210 208 209 212 206 201 200 197 195 194 186 184 189 193 200 208 214 222 229 230 225 228 250 241 163 196 217 209 204 205 208 212 216 214 220 221 203 199 209 210 215
200 199 192 197 196 187 190 191 191 196 197 199 202 201 203 204 205 206 207 209 208 208 210 210 210 212 209 202 201 199 196 196 196 191 187 192 198 200 204 212 219 223 224 235 242 233 224 214 200 195 192 197 209 215 220 218 218 226 213 204 208 210 214
199 199 190 193 196 189 190 191 190 195 197 199 201 202 203 205 205 205 205 209 209 208 210 210 209 211 212 208 203 203 199 195 198 198 196 198 201 203 203 203 206 212 218 231 230 220 226 233 226 207 185 185 203 213 218 219 216 222 221 210 206 208 218
196 197 191 189 193 192 191 190 190 193 195 197 200 201 202 204 205 204 204 208 209 208 208 209 210 211 213 210 204 205 202 197 199 201 203 205 205 207 209 207 205 210 214 220 225 218 219 231 237 223 192 190 201 210 212 215 215 218 221 212 207 209 221
196 195 193 189 190 194 193 191 192 192 192 195 198 200 201 203 204 205 205 207 209 208 207 207 209 210 213 211 204 203 202 201 202 202 202 204 207 209 212 213 212 220 225 220 224 225 222 229 234 251 229 204 205 207 203 203 208 215 216 208 210 213 216
200 197 196 191 190 192 193 193 193 191 191 195 197 199 201 202 204 205 205 206 208 209 207 206 208 209 211 210 204 202 202 201 203 206 205 204 208 212 215 217 215 223 231 224 226 230 230 233 229 250 270 250 237 191 176 185 195 207 214 210 212 211 207
201 198 198 195 192 192 193 194 194 192 194 197 198 199 201 202 204 205 205 206 208 209 207 206 206 208 209 209 205 202 203 203 206 211 211 209 211 213 215 220 222 225 227 225 229 231 237 243 233 235 256 272 277 166 154 178 190 197 207 208 209 207 206
200 199 199 196 194 195 195 195 195 194 196 200 200 200 201 203 205 205 206 208 208 208 207 205 205 206 207 209 207 204 204 205 206 210 212 213 216 219 221 225 229 230 227 227 230 229 234 241 239 233 231 257 281 187 163 182 188 195 201 198 201 204 208
199 198 198 198 197 197 196 196 196 196 197 199 200 201 202 204 205 204 205 207 207 207 206 204 204 203 205 208 207 205 205 205 207 211 214 216 222 226 229 231 232 232 230 229 230 228 230 237 241 241 234 233 246 233 194 191 191 199 192 181 186 198 205
197 198 198 200 200 198 196 196 197 197 198 199 200 201 202 204 206 205 204 205 206 206 204 203 202 201 203 205 205 204 205 206 210 215 216 217 220 223 227 232 230 229 228 229 228 226 229 235 238 241 242 238 237 233 222 228 227 202 182 175 178 186 196
196 198 200 201 201 199 196 196 197 198 199 200 200 200 202 204 205 206 206 205 205 204 203 202 201 200 200 201 201 204 207 208 208 211 211 210 213 219 224 227 226 225 228 230 230 227 229 232 233 235 238 240 243 239 230 241 249 214 188 180 175 177 187
198 198 200 202 202 200 197 196 197 198 198 198 199 200 201 202 205 206 207 206 204 203 203 201 199 198 198 199 199 200 205 207 205 204 206 207 214 220 222 223 222 222 225 229 231 231 230 230 227 229 232 237 246 244 246 274 266 287 198 172 166 177 185
199 198 199 201 203 202 198 197 198 198 198 197 197 199 200 202 205 207 207 207 204 203 202 201 199 197 196 197 197 196 198 202 202 203 206 210 217 219 218 218 217 218 220 224 229 230 229 226 223 223 225 233 241 236 251 265 194 30 80 157 158 166 177
201 200 200 201 202 203 201 199 199 198 196 196 197 198 200 202 206 207 207 208 206 203 202 202 199 197 195 194 195 194 195 198 201 204 207 211 217 220 219 217 213 214 217 221 226 226 219 217 219 221 220 225 234 232 237 235 195 111 102 155 158 153 165
202 201 201 202 201 202 203 202 200 197 195 196 197 197 199 202 205 207 206 207 208 205 204 203 200 196 193 192 192 192 195 199 202 205 207 210 216 220 223 224 220 218 218 220 226 229 219 218 223 224 221 219 223 226 224 216 203 176 146 156 159 157 168
202 202 201 202 202 202 204 203 200 196 195 195 196 197 199 204 207 206 204 205 208 207 205 204 201 196 193 192 191 191 195 200 202 205 208 210 214 217 220 227 229 229 228 224 227 231 227 224 223 218 217 217 216 221 216 205 209 199 170 165 171 172 181
201 201 201 203 204 203 204 203 200 196 195 194 195 196 200 207 209 206 203 204 207 208 206 204 201 196 193 192 191 192 196 199 201 204 206 208 213 216 217 221 225 229 232 226 220 219 217 217 215 210 211 215 215 217 209 201 210 201 170 167 179 190 198
199 200 201 203 205 204 203 203 200 197 195 194 195 197 201 208 210 205 203 204 205 207 206 203 199 197 195 193 192 194 197 200 201 204 206 208 212 215 217 218 219 223 222 214 207 208 210 211 208 205 209 212 210 210 204 197 201 189 169 171 185 198 198
199 200 201 203 205 204 203 203 200 196 195 195 195 196 201 208 209 206 205 204 204 207 206 201 199 198 197 195 194 196 198 199 201 203 204 207 212 216 219 218 216 217 214 205 200 203 208 207 202 202 207 207 202 200 194 184 177 172 171 178 186 191 186
201 200 201 203 204 203 202 202 199 196 194 194 195 196 200 206 207 205 206 205 206 209 207 202 200 200 198 197 196 197 198 198 200 203 204 208 213 216 219 217 213 214 212 204 201 203 205 203 200 202 203 199 196 193 188 181 175 175 181 186 184 182 178
204 203 202 203 203 202 201 201 200 197 194 195 197 197 200 204 204 203 205 206 207 210 207 202 201 200 198 198 197 197 198 196 196 200 203 207 212 213 215 215 211 212 211 206 203 204 204 201 199 200 199 196 195 190 186 186 187 188 194 198 189 180 180
205 206 205 204 203 201 200 200 199 197 195 196 198 198 200 202 202 203 206 208 207 208 207 203 201 200 197 196 197 197 197 194 193 196 200 204 208 210 212 212 210 210 211 207 204 205 205 202 199 198 195 195 194 188 186 189 193 193 196 200 192 180 182
205 208 207 205 202 200 199 199 199 197 196 197 198 199 200 200 202 204 207 209 207 207 208 206 203 201 197 195 197 197 196 194 193 195 197 198 201 205 209 210 208 209 210 205 202 204 203 200 199 197 196 196 195 188 185 189 195 195 195 197 193 185 188
206 208 208 206 203 200 199 197 197 198 198 197 197 198 198 198 202 205 207 208 208 207 208 207 204 202 199 197 196 195 194 193 194 196 195 192 194 200 206 206 205 207 207 201 199 200 199 197 197 197 197 198 197 192 189 191 195 197 197 197 195 197 199
208 209 208 207 204 201 199 197 197 197 197 196 195 196 197 198 201 205 207 208 208 209 210 208 204 200 198 197 196 194 193 191 191 195 195 191 191 197 201 202 203 205 204 200 197 197 196 195 195 196 197 198 197 195 195 196 196 198 201 197 196 204 203
212 213 208 206 204 201 198 197 196 196 196 196 195 195 196 198 200 204 207 207 208 210 211 210 206 200 196 195 195 193 192 191 191 193 193 188 187 193 197 198 199 200 200 199 198 196 196 195 194 195 193 194 195 194 196 199 198 200 204 201 198 201 196
212 217 214 207 203 200 198 196 195 196 195 195 194 195 197 198 199 203 206 207 208 209 211 211 207 201 198 196 195 192 190 191 193 194 193 187 185 190 195 196 195 194 194 197 197 197 197 196 194 194 191 191 193 194 195 198 197 195 199 200 195 187 187
208 214 218 212 203 199 197 196 195 195 194 194 194 195 197 198 199 202 205 206 207 208 211 211 207 201 199 197 194 190 189 192 194 194 193 189 187 189 193 195 196 193 192 196 197 197 198 197 196 196 193 191 194 196 200 202 199 196 196 196 194 184 179
205 209 217 216 207 200 198 196 194 193 193 194 195 196 197 198 199 201 204 205 205 207 210 211 206 201 199 196 192 190 190 193 193 191 189 188 188 188 191 194 197 194 193 196 197 198 199 199 197 196 194 192 193 198 203 205 202 201 201 201 200 195 184
201 205 214 221 213 202 197 195 193 193 193 193 194 195 196 197 198 200 202 203 203 205 209 209 204 200 198 195 191 189 190 190 188 187 186 187 188 188 191 195 195 195 195 196 197 199 199 198 197 195 193 191 193 197 202 205 206 207 207 208 208 206 201
202 203 210 222 220 205 196 195 192 191 192 192 194 195 195 196 198 198 201 202 202 204 208 205 199 197 197 195 192 190 190 188 184 183 184 186 188 189 191 195 196 195 195 195 196 197 197 196 194 191 190 190 191 194 199 203 209 214 215 215 215 214 211
205 207 210 223 226 210 196 194 193 191 193 193 194 196 195 195 196 197 200 202 202 203 206 202 196 196 198 197 194 191 189 186 183 183 183 182 185 190 192 194 196 196 195 194 195 195 195 194 191 190 191 189 187 190 197 204 211 218 219 218 219 219 217
210 207 209 217 222 212 198 194 192 190 192 194 193 195 195 195 196 197 199 200 200 201 204 199 194 197 200 198 195 193 190 188 184 181 179 177 181 188 191 193 194 194 195 194 193 194 196 194 191 190 191 190 190 192 197 205 213 219 222 220 220 221 222
235 216 213 217 220 212 199 193 191 188 188 191 191 191 193 195 196 196 197 198 198 199 203 199 193 196 201 199 196 194 193 191 186 179 174 177 182 186 187 189 190 191 194 194 192 194 196 193 191 192 194 197 201 198 193 198 206 212 218 219 217 219 223
241 228 223 227 232 226 208 194 190 188 186 188 189 189 191 193 195 195 196 198 197 198 203 202 196 197 202 201 198 196 195 194 189 181 175 178 184 187 186 186 188 190 194 195 192 193 194 192 191 194 197 200 201 195 190 193 196 196 201 206 207 212 217
237 230 225 221 224 231 220 198 189 188 186 186 187 186 188 190 192 193 195 197 197 198 202 204 200 200 203 202 199 196 196 195 189 183 179 181 185 186 185 186 188 191 194 194 192 192 193 191 189 189 191 192 192 190 190 190 189 188 189 192 196 201 206
235 228 223 213 209 219 216 197 187 187 185 184 184 184 186 187 188 191 193 194 195 196 200 202 201 201 203 203 199 196 196 195 190 185 183 184 185 184 184 187 189 191 192 192 191 191 191 192 192 188 186 188 190 190 188 187 189 191 192 196 200 201 203